Jaffrey, NH

1:11 PM EDT on August 21, 2017 (GMT -0400)
Jaffrey Airport-Silver Ranch

Weather History for KAFN - March, 2013

Change the Weather History Date:

Saturday, March 30, 2013

  Actual Average Record
Temperature  
Mean Temperature 38 °F -  
Max Temperature 48 °F 43 °F 77 °F (1998)
Min Temperature 27 °F 26 °F 10 °F (2008)
Degree Days  
Heating Degree Days 28    
Moisture  
Dew Point 20 °F    
Average Humidity 57    
Maximum Humidity 92    
Minimum Humidity 22    
Precipitation  
Precipitation 0.00 in - - ()
Sea Level Pressure  
Sea Level Pressure 30.08 in    
Wind  
Wind Speed 2 mph (NW)    
Max Wind Speed 8 mph    
Max Gust Speed -    
Visibility 10 miles    
Events      
Averages and records for this station are not official NWS values.
T = Trace of Precipitation, MM = Missing Value Source: NWS Daily Summary

Daily Weather History Graph

Daily Weather History Graph

Search for Another Location

Airport or City:

Trip Planner

Search our weather history database for the weather conditions in past years. The results will help you decide how hot, cold, wet, or windy it might be!

Date:

Astronomy

Mar. 30, 2013 Rise Set
Actual Time 6:33 AM EDT 7:12 PM EDT
Civil Twilight 6:04 AM EDT 7:40 PM EDT
Nautical Twilight 5:31 AM EDT 8:14 PM EDT
Astronomical Twilight 4:56 AM EDT 8:49 PM EDT
Moon 11:21 PM EDT (3/30) 8:20 AM EDT (3/30)
Length of Visible Light 13h 35m
Length of Day
12h 38m
Waning Gibbous, 86% of the Moon is Illuminated
Mar 30
Waning Gibbous
Apr 3
Last Quarter
Apr 10
New
Apr 18
First Quarter
Apr 25
Full

Hourly Weather History & Observations

Time (EDT) Temp. Windchill Dew Point Humidity Pressure Visibility Wind Dir Wind Speed Gust Speed Precip Events Conditions
12:52 AM 35.1 °F - 30.0 °F 82% 30.07 in 10.0 mi Calm Calm - N/A   Mostly Cloudy
1:52 AM 32.0 °F - 28.0 °F 85% 30.08 in 10.0 mi Calm Calm - N/A   Clear
2:52 AM 30.9 °F - 28.0 °F 89% 30.08 in 10.0 mi Calm Calm - N/A   Overcast
3:52 AM 30.9 °F - 27.0 °F 85% 30.07 in 10.0 mi Calm Calm - N/A   Mostly Cloudy
4:52 AM 30.0 °F - 28.0 °F 92% 30.08 in 10.0 mi Calm Calm - N/A   Overcast
5:52 AM 30.9 °F - 27.0 °F 85% 30.08 in 10.0 mi Calm Calm - N/A   Overcast
6:52 AM 28.9 °F 25.2 °F 26.1 °F 89% 30.09 in 10.0 mi SSE 3.5 mph - N/A   Mostly Cloudy
7:52 AM 30.9 °F - 26.1 °F 82% 30.10 in 10.0 mi Calm Calm - N/A   Partly Cloudy
8:52 AM 41.0 °F 35.8 °F 23.0 °F 49% 30.10 in 10.0 mi NNW 8.1 mph - N/A   Clear
9:52 AM 42.1 °F 37.1 °F 19.9 °F 41% 30.10 in 10.0 mi WNW 8.1 mph - N/A   Clear
10:52 AM 45.0 °F 40.6 °F 16.0 °F 31% 30.10 in 10.0 mi NW 8.1 mph - N/A   Clear
11:52 AM 46.0 °F 41.9 °F 12.9 °F 26% 30.09 in 10.0 mi NNW 8.1 mph - N/A   Clear
12:52 PM 46.9 °F - 14.0 °F 27% 30.07 in 10.0 mi NNW 6.9 mph - N/A   Clear
1:52 PM 48.0 °F - 10.0 °F 22% 30.06 in 10.0 mi Variable 6.9 mph - N/A   Clear
2:52 PM 48.0 °F - 10.9 °F 22% 30.05 in 10.0 mi WNW 5.8 mph - N/A   Clear
3:52 PM 48.0 °F - 12.9 °F 24% 30.05 in 10.0 mi Variable 4.6 mph - N/A   Clear
4:52 PM 48.9 °F - 12.9 °F 24% 30.05 in 10.0 mi Variable 5.8 mph - N/A   Clear
5:52 PM 48.0 °F - 14.0 °F 26% 30.06 in 10.0 mi NNW 3.5 mph - N/A   Clear
6:52 PM 45.0 °F - 17.1 °F 33% 30.07 in 10.0 mi Calm Calm - N/A   Clear
7:52 PM 35.1 °F - 21.9 °F 59% 30.09 in 10.0 mi Calm Calm - N/A   Clear
8:52 PM 30.0 °F 26.5 °F 21.9 °F 72% 30.11 in 10.0 mi South 3.5 mph - N/A   Clear
9:52 PM 28.9 °F - 21.9 °F 75% 30.12 in 10.0 mi Calm Calm - N/A   Clear
10:52 PM 27.0 °F - 21.0 °F 78% 30.12 in 10.0 mi Calm Calm - N/A   Clear
11:52 PM 27.0 °F - 21.0 °F 78% 30.13 in 10.0 mi Calm Calm - N/A   Clear